N0OQA Weather Reports


Display with metric or nautical units.
time (UTC)temp
F
wind
direction
speed
MPH
gust
MPH
rain 1hr
in
rain 24hr
in
rain mn
in
humidity
%
barometer
mb
20260903172025 88 184 4.0 7.0 0.00 0.00 0.00 49 1012.0
20260903171024 87 221 5.0 6.0 0.00 0.00 0.00 51 1012.2
20260903170023 86 122 5.0 11.0 0.00 0.00 0.00 52 1012.3
20260903164021 84 143 3.0 7.0 0.00 0.00 0.00 59 1012.6
20260903150516 76 177 4.0 8.0 0.00 0.00 0.00 81 1012.4
20260903132007 70 201 3.0 6.0 0.00 0.00 0.00 90 1012.9
20260903125005 69 83 4.0 5.0 0.00 0.00 0.00 90 1013.0
20260903120959 70 24 4.0 6.0 0.00 0.00 0.00 90 1012.8
20260903115958 69 150 2.0 5.0 0.00 0.00 0.00 90 1012.9
20260903114957 69 42 3.0 7.0 0.00 0.00 0.00 90 1012.9
20260903101950 68 1 3.0 7.0 0.00 0.00 0.00 88 1012.7
20260903081943 70 35 1.0 3.0 0.00 0.00 0.00 81 1012.8
20260903080942 70 0 0.0 0.0 0.00 0.00 0.00 80 1013.1
20260903060934 72 0 0.0 0.0 0.00 0.00 0.00 75 1013.7
20260903055933 72 0 0.0 0.0 0.00 0.00 0.00 75 1013.7
20260903054932 72 13 1.0 2.0 0.00 0.00 0.00 74 1013.7
20260903051929 73 0 0.0 0.0 0.00 0.00 0.00 72 1013.8
20260903035423 74 0 2.0 5.0 0.00 0.00 0.00 67 1014.0
20260903033922 74 34 1.0 3.0 0.00 0.00 0.00 67 1014.0
20260903005409 80 0 0.0 0.0 0.00 0.00 0.00 56 1013.3
20260903003408 81 0 0.0 0.0 0.00 0.00 0.00 55 1013.3
20260902233404 83 181 4.0 7.0 0.00 0.00 0.00 49 1013.1
20260902224400 84 0 0.0 0.0 0.00 0.00 0.00 48 1013.3
20260902214857 86 41 1.0 2.0 0.00 0.00 0.00 46 1013.6
20260902213856 85 352 2.0 5.0 0.00 0.00 0.00 46 1013.7
20260902213356 86 8 6.0 9.0 0.00 0.00 0.00 45 1013.8
20260902205853 86 148 3.0 7.0 0.00 0.00 0.00 44 1013.8
20260902205353 87 23 6.0 7.0 0.00 0.00 0.00 43 1013.8